Météo par heure à Allende

Ce jour, 15 Mai, Samedi

Heure Température Précipitation Vent Pression Humidité
00:00 +22°C° 0 mm 3 m/s 723 mmHg 86%
01:00 +21°C° 0 mm 2 m/s 723 mmHg 87%
02:00 +21°C° 0 mm 2 m/s 722 mmHg 87%
03:00 +21°C° 0 mm 2 m/s 723 mmHg 87%
04:00 +21°C° 0 mm 2 m/s 723 mmHg 87%
05:00 +22°C° 0 mm 1 m/s 723 mmHg 87%
06:00 +24°C° 0 mm 2 m/s 723 mmHg 81%
07:00 +25°C° 0 mm 2 m/s 723 mmHg 75%
08:00 +27°C° 0 mm 2 m/s 723 mmHg 69%
09:00 +29°C° 0.1 mm 3 m/s 723 mmHg 64%
10:00 +30°C° 0.1 mm 3 m/s 723 mmHg 58%
11:00 +33°C° 0.1 mm 3 m/s 723 mmHg 53%
12:00 +33°C° 0.5 mm 3 m/s 722 mmHg 52%
13:00 +34°C° 0.5 mm 4 m/s 721 mmHg 51%
14:00 +34°C° 0.5 mm 4 m/s 721 mmHg 50%
15:00 +31°C° 3.1 mm 3 m/s 721 mmHg 62%
16:00 +28°C° 3.1 mm 3 m/s 720 mmHg 73%
17:00 +26°C° 3.1 mm 2 m/s 720 mmHg 84%
18:00 +25°C° 1.7 mm 2 m/s 721 mmHg 87%
19:00 +25°C° 1.7 mm 2 m/s 721 mmHg 89%
20:00 +24°C° 1.7 mm 2 m/s 722 mmHg 92%
21:00 +24°C° 0 mm 2 m/s 721 mmHg 90%
22:00 +24°C° 0 mm 3 m/s 721 mmHg 89%
23:00 +24°C° 0 mm 3 m/s 721 mmHg 87%

Demain, 16 Mai, Dimanche

Heure Température Précipitation Vent Pression Humidité
00:00 +24°C° 0 mm 3 m/s 720 mmHg 87%
01:00 +23°C° 0 mm 2 m/s 720 mmHg 87%
02:00 +23°C° 0 mm 2 m/s 720 mmHg 87%
03:00 +23°C° 0 mm 2 m/s 720 mmHg 86%
04:00 +23°C° 0 mm 2 m/s 720 mmHg 85%
05:00 +23°C° 0 mm 2 m/s 720 mmHg 85%
06:00 +25°C° 0 mm 1 m/s 721 mmHg 80%
07:00 +26°C° 0 mm 1 m/s 721 mmHg 75%
08:00 +28°C° 0 mm 1 m/s 722 mmHg 70%
09:00 +29°C° 0 mm 1 m/s 722 mmHg 65%
10:00 +31°C° 0 mm 2 m/s 721 mmHg 59%
11:00 +32°C° 0 mm 2 m/s 721 mmHg 53%
12:00 +32°C° 0.8 mm 2 m/s 721 mmHg 57%
13:00 +31°C° 0.8 mm 2 m/s 720 mmHg 61%
14:00 +30°C° 0.8 mm 2 m/s 720 mmHg 65%
15:00 +30°C° 0.9 mm 2 m/s 719 mmHg 66%
16:00 +29°C° 0.9 mm 2 m/s 719 mmHg 68%
17:00 +28°C° 0.9 mm 2 m/s 719 mmHg 69%
18:00 +27°C° 0.2 mm 2 m/s 720 mmHg 68%
19:00 +26°C° 0.2 mm 3 m/s 720 mmHg 67%
20:00 +25°C° 0.2 mm 3 m/s 720 mmHg 66%
21:00 +25°C° 0 mm 2 m/s 720 mmHg 65%
22:00 +25°C° 0 mm 2 m/s 720 mmHg 64%
23:00 +25°C° 0 mm 2 m/s 720 mmHg 63%

Après-demain, 17 Mai, Lundi

Heure Température Précipitation Vent Pression Humidité
00:00 +24°C° 0 mm 2 m/s 719 mmHg 64%
01:00 +24°C° 0 mm 2 m/s 719 mmHg 65%
02:00 +24°C° 0 mm 2 m/s 719 mmHg 66%
03:00 +24°C° 0 mm 2 m/s 719 mmHg 66%
04:00 +23°C° 0 mm 2 m/s 719 mmHg 65%
05:00 +23°C° 0 mm 2 m/s 719 mmHg 65%
06:00 +26°C° 0 mm 2 m/s 719 mmHg 58%
07:00 +28°C° 0 mm 2 m/s 719 mmHg 51%
08:00 +31°C° 0 mm 2 m/s 720 mmHg 44%
09:00 +32°C° 0 mm 2 m/s 720 mmHg 42%
10:00 +35°C° 0 mm 3 m/s 719 mmHg 39%
11:00 +36°C° 0 mm 3 m/s 719 mmHg 36%
12:00 +37°C° 0 mm 3 m/s 719 mmHg 35%
13:00 +37°C° 0 mm 3 m/s 718 mmHg 34%
14:00 +38°C° 0 mm 3 m/s 718 mmHg 33%
15:00 +37°C° 0 mm 3 m/s 718 mmHg 35%
16:00 +36°C° 0 mm 3 m/s 718 mmHg 38%
17:00 +36°C° 0 mm 3 m/s 718 mmHg 40%
18:00 +34°C° 0 mm 3 m/s 718 mmHg 48%
19:00 +30°C° 0 mm 3 m/s 718 mmHg 56%
20:00 +28°C° 0 mm 3 m/s 718 mmHg 63%
21:00 +28°C° 0 mm 3 m/s 718 mmHg 62%
22:00 +27°C° 0 mm 3 m/s 718 mmHg 61%
23:00 +27°C° 0 mm 3 m/s 718 mmHg 60%

18 Mai, Mardi

Heure Température Précipitation Vent Pression Humidité
00:00 +26°C° 0 mm 3 m/s 718 mmHg 60%
01:00 +26°C° 0 mm 3 m/s 717 mmHg 60%
02:00 +26°C° 0 mm 3 m/s 716 mmHg 60%
03:00 +26°C° 0 mm 3 m/s 717 mmHg 62%
04:00 +26°C° 0 mm 3 m/s 717 mmHg 63%
05:00 +25°C° 0 mm 3 m/s 717 mmHg 65%
06:00 +27°C° 0 mm 2 m/s 717 mmHg 60%
07:00 +29°C° 0 mm 2 m/s 718 mmHg 55%
08:00 +31°C° 0 mm 2 m/s 718 mmHg 50%
09:00 +34°C° 0 mm 2 m/s 718 mmHg 46%
10:00 +35°C° 0 mm 2 m/s 718 mmHg 41%
11:00 +37°C° 0 mm 2 m/s 718 mmHg 37%
12:00 +37°C° 0 mm 2 m/s 717 mmHg 35%
13:00 +38°C° 0 mm 2 m/s 717 mmHg 33%
14:00 +39°C° 0 mm 2 m/s 716 mmHg 32%
15:00 +38°C° 0 mm 2 m/s 716 mmHg 33%
16:00 +38°C° 0 mm 2 m/s 716 mmHg 34%
17:00 +37°C° 0 mm 2 m/s 716 mmHg 36%
18:00 +34°C° 0.2 mm 2 m/s 716 mmHg 46%
19:00 +30°C° 0.2 mm 3 m/s 716 mmHg 56%
20:00 +28°C° 0.2 mm 3 m/s 716 mmHg 66%
21:00 +27°C° 0 mm 3 m/s 716 mmHg 66%
22:00 +27°C° 0 mm 2 m/s 716 mmHg 66%
23:00 +27°C° 0 mm 2 m/s 716 mmHg 66%

19 Mai, Mercredi

Heure Température Précipitation Vent Pression Humidité
00:00 +26°C° 0 mm 2 m/s 716 mmHg 67%
01:00 +26°C° 0 mm 2 m/s 716 mmHg 67%
02:00 +25°C° 0 mm 2 m/s 716 mmHg 68%
03:00 +25°C° 0 mm 2 m/s 717 mmHg 68%
04:00 +25°C° 0 mm 2 m/s 717 mmHg 67%
05:00 +25°C° 0 mm 2 m/s 717 mmHg 66%
06:00 +26°C° 0 mm 2 m/s 718 mmHg 61%
07:00 +28°C° 0 mm 2 m/s 718 mmHg 56%
08:00 +30°C° 0 mm 2 m/s 719 mmHg 51%
09:00 +32°C° 0 mm 2 m/s 719 mmHg 48%
10:00 +34°C° 0 mm 2 m/s 719 mmHg 45%
11:00 +36°C° 0 mm 2 m/s 719 mmHg 42%
12:00 +36°C° 0.1 mm 2 m/s 718 mmHg 41%
13:00 +37°C° 0.1 mm 2 m/s 718 mmHg 40%
14:00 +37°C° 0.1 mm 2 m/s 717 mmHg 39%
15:00 +37°C° 0.1 mm 2 m/s 717 mmHg 41%
16:00 +36°C° 0.1 mm 2 m/s 717 mmHg 43%
17:00 +36°C° 0.1 mm 2 m/s 717 mmHg 45%
18:00 +34°C° 0.2 mm 2 m/s 717 mmHg 53%
19:00 +31°C° 0.2 mm 2 m/s 717 mmHg 60%
20:00 +29°C° 0.2 mm 3 m/s 717 mmHg 68%
21:00 +28°C° 0.5 mm 2 m/s 718 mmHg 74%
22:00 +27°C° 0.5 mm 2 m/s 718 mmHg 80%
23:00 +26°C° 0.5 mm 2 m/s 719 mmHg 85%

20 Mai, Jeudi

Heure Température Précipitation Vent Pression Humidité
00:00 +26°C° 0.1 mm 2 m/s 719 mmHg 87%
01:00 +25°C° 0.1 mm 2 m/s 719 mmHg 88%
02:00 +25°C° 0.1 mm 2 m/s 718 mmHg 90%
03:00 +25°C° 0 mm 2 m/s 718 mmHg 88%
04:00 +25°C° 0 mm 2 m/s 718 mmHg 87%
05:00 +25°C° 0 mm 2 m/s 718 mmHg 86%
06:00 +26°C° 0 mm 2 m/s 718 mmHg 79%
07:00 +28°C° 0 mm 3 m/s 719 mmHg 72%
08:00 +30°C° 0 mm 3 m/s 719 mmHg 66%
09:00 +31°C° 0 mm 3 m/s 719 mmHg 60%
10:00 +34°C° 0 mm 3 m/s 719 mmHg 54%
11:00 +36°C° 0 mm 4 m/s 719 mmHg 48%
12:00 +36°C° 0.2 mm 4 m/s 718 mmHg 46%
13:00 +37°C° 0.2 mm 4 m/s 718 mmHg 44%
14:00 +38°C° 0.2 mm 4 m/s 717 mmHg 42%
15:00 +36°C° 1.7 mm 4 m/s 717 mmHg 50%
16:00 +34°C° 1.7 mm 4 m/s 717 mmHg 58%
17:00 +30°C° 1.7 mm 4 m/s 717 mmHg 65%
18:00 +28°C° 4.2 mm 4 m/s 717 mmHg 73%
19:00 +26°C° 4.2 mm 4 m/s 718 mmHg 81%
20:00 +23°C° 4.2 mm 4 m/s 719 mmHg 89%
21:00 +25°C° 0 mm 3 m/s 719 mmHg 85%
22:00 +25°C° 0 mm 3 m/s 718 mmHg 81%
23:00 +25°C° 0 mm 3 m/s 718 mmHg 78%
Voir plus

Nous avons besoin de votre consentement

Meteoprog et ses fournisseurs de services peuvent stocker et accéder à des données personnelles telles que des cookies, des identifiants d'appareils ou d'autres technologies similaires sur votre appareil et traiter ces données pour personnaliser le contenu et les publicités, ainsi que pour fournir des fonctionnalités de médias sociaux et analyser le trafic.

  • Stocker et/ou accéder à des informations sur votre appareil

    Des cookies, des identifiants d'appareils ou d'autres informations peuvent être stockés ou accessibles sur votre appareil aux fins indiquées ci-dessus.

  • Annonces et contenus personnalisés, mesure des annonces et des contenus, connaissance de l'audience et développement de produits

    Les annonces et le contenu peuvent être personnalisés en fonction d'un profil. D'autres données peuvent être ajoutées pour mieux personnaliser les annonces et le contenu. Les performances des publicités et du contenu peuvent être mesurées. Il est possible d'obtenir des informations sur le public qui a vu les publicités et le contenu. Ces données peuvent être utilisées pour développer ou améliorer l'expérience de l'utilisateur, les systèmes et les logiciels.

En cliquant sur "J'accepte", vous autorisez l'utilisation de cookies, des identifiants d'appareils, des balises web ou d'autres technologies similaires. Vos paramètres peuvent être modifiés dans le navigateur de votre appareil.

Dans certains cas, des intérêts légitimes peuvent être invoqués plutôt qu'un consentement. Vous pouvez en savoir plus à ce sujet dans notre Politique de confidentialité et de cookies.